[[{"header":{"parameterUnit":"m.s-1","parameterCategory":1,"la1":30.2991,"la2":30.254,"lo1":-89.0895,"lo2":-89.0444,"dy":0.0017,"dx":0.0017,"nx":28,"ny":28,"refTime":"2024-06-21T03:00:00:Z","depth":0,"parameterNumber":2,"parameterNumberName":"U-component_of_WINDS"},"data":[0,0,0,0,0,0,0,0,0,0,0,0,0,0,0,0,0,0,0,0,0,0,0,0,0,0,0,0,0,0,0,0,0,0,0,0,0,0,0,0,0,0,0,0,0,0,0,0,0,0,0,0,0,0,0,0,0,0,1.4595,1.4596,0,1.469,1.4691,1.4692,1.4726,1.4725,1.4725,1.4725,1.482,1.4823,1.4825,0,0,0,0,0,0,0,0,0,0,0,0,0,1.4439,1.4441,1.4595,1.4596,1.4597,1.4689,1.4691,1.4692,1.4726,1.4725,1.4725,1.4724,1.4819,1.4822,1.4826,0,0,0,0,0,0,0,0,0,0,0,0,0,1.4517,1.4442,1.4594,1.4625,1.4629,1.4689,1.4691,1.4692,1.4726,1.4725,1.4725,1.4724,1.4818,1.4822,1.4826,1.4863,0,0,1.4839,1.4841,0,0,0,0,0,0,0,0,1.4513,1.4523,1.4619,1.4623,1.4627,1.4695,1.4671,1.4749,1.4726,1.4689,1.4725,1.4724,1.4779,1.4786,1.4805,1.4867,1.4871,1.484,1.4842,1.4844,1.4845,0,0,0,0,0,0,0,1.4507,1.4519,1.4632,1.4621,1.4625,1.4633,1.4643,1.4686,1.4735,1.4692,1.4695,1.4706,1.4781,1.4801,1.4807,1.4872,1.4839,1.4843,1.4846,1.4848,1.4967,1.4967,0,0,0,0,0,0,1.4497,1.4514,1.4629,1.4635,1.4568,1.4636,1.4648,1.4674,1.4735,1.4744,1.4706,1.4707,1.4794,1.4802,1.4811,1.4856,1.4844,1.4848,1.485,1.4966,1.4967,1.4968,0,0,0,0,0,0,1.4494,1.4507,1.4625,1.4575,1.4591,1.4639,1.4668,1.4676,1.4696,1.4746,1.4754,1.4718,1.4794,1.4805,1.4849,1.486,1.485,1.4854,1.4966,1.4966,1.4967,1.4948,0,0,0,0,0,0,1.4489,1.4506,1.4521,1.4576,1.4594,1.4663,1.4669,1.4678,1.4704,1.4706,1.4759,1.4767,1.4794,1.4843,1.4853,1.4866,1.4857,1.4965,1.4966,1.4967,1.4948,1.4948,1.4948,0,0,0,0,0,1.4483,1.4512,1.4522,1.4535,1.4614,1.4663,1.4674,1.4705,1.4704,1.4719,1.4751,1.4765,1.4857,1.4847,1.4859,1.4873,1.4964,1.4966,1.4967,1.4948,1.4948,1.4948,0,0,0,0,0,0,1.4457,1.4519,1.4531,1.4578,1.4615,1.4669,1.4689,1.4704,1.4742,1.4742,1.4779,1.479,1.4831,1.4857,1.4844,1.491,1.4911,1.4915,1.4892,1.4893,1.4893,1.4886,1.4861,0,0,0,0,0,1.4456,1.4493,1.4545,1.4581,1.4599,1.4641,1.4664,1.4684,1.4724,1.474,1.4774,1.4812,1.4849,1.4872,1.4909,1.4951,1.4963,1.4967,1.4967,1.4967,1.497,1.4993,1.4995,1.4972,1.4972,1.4972,0,0,1.4456,1.4495,1.4515,1.4577,1.4608,1.4643,1.4654,1.4691,1.4717,1.4745,1.4789,1.4815,1.4859,1.4902,1.4923,1.4924,1.4979,1.4969,1.4969,1.4972,1.4994,1.4996,1.4998,1.4973,1.4973,1.4973,0,0,1.4473,1.4507,1.454,1.4571,1.4618,1.4645,1.4653,1.4704,1.4723,1.4767,1.4788,1.4819,1.4883,1.4913,1.4936,1.4962,1.4977,1.4973,1.4975,1.4996,1.4998,1.5,1.5008,1.5011,1.4976,1.4976,1.4976,0,1.4466,1.4522,1.4555,1.4591,1.4616,1.4643,1.4676,1.4704,1.476,1.4777,1.4778,1.4857,1.4889,1.4938,1.4944,1.4963,1.4972,1.4968,1.4995,1.4997,1.4999,1.5008,1.5011,1.4975,1.4975,1.4975,1.4975,0,1.451,1.4548,1.4569,1.4623,1.4651,1.4685,1.4722,1.4746,1.4763,1.479,1.4834,1.4872,1.4917,1.493,1.4948,1.4981,1.4981,1.4988,1.499,1.5,1.5008,1.5012,1.4974,1.4974,1.4975,1.4975,0,0,1.4514,1.4585,1.4592,1.4616,1.4669,1.4698,1.4733,1.4777,1.4796,1.4833,1.4862,1.4914,1.4921,1.4947,1.4969,1.4987,1.5004,1.4992,1.4994,1.4992,1.5042,1.5036,1.5039,1.5014,1.5014,1.5015,1.5038,0,1.4537,1.4601,1.4631,1.4681,1.4715,1.4741,1.477,1.4805,1.483,1.4862,1.489,1.4926,1.4932,1.4948,1.4968,1.4998,1.5014,1.4997,1.504,1.5041,1.5028,1.5044,1.5038,1.5058,1.5041,1.5042,1.5043,0,1.4574,1.4611,1.4664,1.4712,1.4727,1.4754,1.4795,1.4826,1.4865,1.4882,1.4911,1.4931,1.4966,1.4965,1.5014,1.5001,1.5021,1.5038,1.5039,1.5044,1.5042,1.5048,1.5065,1.5067,1.5048,1.5048,1.5047,0,1.4569,1.4633,1.4673,1.4693,1.475,1.4767,1.4792,1.4831,1.4855,1.4891,1.4906,1.4946,1.4967,1.4997,1.5026,1.5023,1.5072,1.5073,1.5086,1.5085,1.5095,1.5094,1.5114,1.5108,1.5108,1.5108,1.5108,0,1.4592,1.4623,1.4672,1.4696,1.4732,1.4765,1.4799,1.4825,1.4859,1.4888,1.4912,1.4938,1.4976,1.5007,1.503,1.5066,1.5076,1.509,1.5095,1.5087,1.5085,1.51,1.51,1.5109,1.5108,1.5108,1.5108,0,1.4594,1.4628,1.4672,1.4722,1.4735,1.4759,1.4801,1.4825,1.4851,1.4887,1.4897,1.4938,1.4975,1.5008,1.5057,1.5073,1.5109,1.5117,1.5096,1.5099,1.5109,1.5108,1.514,1.5145,1.5135,1.5135,1.5135,0,1.4606,1.463,1.4683,1.4704,1.4728,1.4762,1.4786,1.482,1.4844,1.489,1.4907,1.4947,1.498,1.5038,1.5071,1.5108,1.5116,1.5125,1.5122,1.5113,1.5116,1.5114,1.5116,1.5125,1.5125,1.5125,1.5125,0,1.4623,1.4638,1.4673,1.4713,1.4741,1.4774,1.4808,1.4824,1.4863,1.4888,1.4927,1.4953,1.5002,1.504,1.5081,1.5105,1.5121,1.5125,1.513,1.5122,1.5109,1.5115,1.5095,1.5124,1.5124,1.5124,1.5124,1.5124,1.463,1.4652,1.4692,1.4729,1.4758,1.4789,1.4813,1.4842,1.4875,1.4919,1.4936,1.4975,1.5012,1.5068,1.5092,1.5122,1.5125,1.5132,1.5134,1.5135,1.5133,1.5104,1.513,1.513,1.513,1.513,1.513,0,1.4647,1.4674,1.4708,1.4754,1.4783,1.4796,1.4833,1.4856,1.489,1.4924,1.4956,1.4999,1.5036,1.5072,1.511,1.5127,1.5135,1.5136,1.5135,1.514,1.5129,1.5121,1.5129,1.5129,1.5129,1.5129,1.5129,1.5129,1.466,1.4698,1.4718,1.477,1.4797,1.4835,1.4856,1.4883,1.491,1.4958,1.4989,1.5012,1.5046,1.5086,1.512,1.5129,1.5142,1.5141,1.5152,1.5141,1.5141,1.514,1.5133,1.5143,1.5143,1.516,1.5161,1.5161]},{"header":{"parameterUnit":"m.s-1","parameterCategory":1,"la1":30.2991,"la2":30.254,"lo1":-89.0895,"lo2":-89.0444,"dy":0.0017,"dx":0.0017,"nx":28,"ny":28,"refTime":"2024-06-21T03:00:00:Z","depth":0,"parameterNumber":3,"parameterNumberName":"V-component_of_WINDS"},"data":[0,0,0,0,0,0,0,0,0,0,0,0,0,0,0,0,0,0,0,0,0,0,0,0,0,0,0,0,0,0,0,0,0,0,0,0,0,0,0,0,0,0,0,0,0,0,0,0,0,0,0,0,0,0,0,0,0,0,5.0543,5.0543,0,5.057,5.0571,5.0571,5.0486,5.0484,5.0481,5.0479,5.0503,5.0506,5.0509,0,0,0,0,0,0,0,0,0,0,0,0,0,5.0414,5.0416,5.0543,5.0543,5.0544,5.057,5.0571,5.0571,5.0487,5.0484,5.048,5.0478,5.0502,5.0506,5.051,0,0,0,0,0,0,0,0,0,0,0,0,0,5.0458,5.0417,5.0543,5.0505,5.0502,5.057,5.0571,5.0571,5.0487,5.0484,5.048,5.0476,5.0501,5.0506,5.051,5.0616,0,0,5.0524,5.0526,0,0,0,0,0,0,0,0,5.0456,5.0463,5.051,5.0508,5.0504,5.0521,5.0534,5.0586,5.0488,5.0493,5.0479,5.0474,5.0512,5.0516,5.0529,5.0617,5.0618,5.0525,5.0527,5.0529,5.0531,0,0,0,0,0,0,0,5.0453,5.0461,5.0554,5.0511,5.0507,5.0485,5.0487,5.0543,5.0524,5.0492,5.0486,5.0491,5.051,5.0525,5.0529,5.0618,5.0524,5.0529,5.0531,5.0533,5.0792,5.0796,0,0,0,0,0,0,5.0455,5.0459,5.0553,5.0555,5.047,5.0491,5.0493,5.052,5.0523,5.052,5.0494,5.0487,5.0519,5.0524,5.053,5.0652,5.0529,5.0534,5.0536,5.0788,5.0793,5.0797,0,0,0,0,0,0,5.0453,5.0464,5.0552,5.0505,5.0515,5.0497,5.0527,5.0522,5.0537,5.0524,5.052,5.0513,5.0516,5.0523,5.0595,5.0652,5.0536,5.054,5.0783,5.0789,5.0795,5.0898,0,0,0,0,0,0,5.0449,5.0464,5.0505,5.0507,5.0518,5.0618,5.0531,5.0525,5.0546,5.0536,5.0541,5.0538,5.0514,5.0588,5.0599,5.0656,5.0543,5.0778,5.0786,5.0793,5.089,5.0907,5.0922,0,0,0,0,0,5.0445,5.0533,5.0508,5.0519,5.0569,5.0621,5.0627,5.0598,5.0551,5.0591,5.0582,5.0538,5.0644,5.0596,5.0608,5.0667,5.0774,5.0783,5.0792,5.0882,5.0904,5.0922,0,0,0,0,0,0,5.0537,5.0532,5.0504,5.0596,5.061,5.0607,5.0657,5.0622,5.0649,5.0639,5.0601,5.0602,5.0681,5.0681,5.0628,5.0768,5.07,5.0713,5.0765,5.0785,5.0801,5.0799,5.0547,0,0,0,0,0,5.0568,5.0613,5.0606,5.0687,5.0695,5.0675,5.0697,5.0673,5.0686,5.0691,5.0688,5.0701,5.0736,5.0761,5.0793,5.089,5.0888,5.0936,5.0952,5.0965,5.0976,5.1025,5.1045,5.0828,5.0827,5.0827,0,0,5.0632,5.0635,5.0666,5.0705,5.0713,5.0759,5.0681,5.0732,5.0765,5.0699,5.0766,5.0764,5.0776,5.086,5.0896,5.0862,5.1036,5.0977,5.0988,5.0991,5.1037,5.1057,5.1076,5.0834,5.0833,5.0832,0,0,5.0772,5.078,5.0847,5.0857,5.0871,5.0857,5.0873,5.0876,5.0872,5.0939,5.089,5.0928,5.0991,5.1001,5.1014,5.1157,5.1117,5.1169,5.1254,5.1302,5.1319,5.1334,5.1384,5.1402,5.118,5.118,5.118,0,5.085,5.0918,5.0886,5.0941,5.0959,5.0902,5.0969,5.098,5.1003,5.1016,5.0978,5.1055,5.1059,5.1144,5.1178,5.1192,5.1208,5.1168,5.1319,5.1334,5.1348,5.1394,5.1413,5.1186,5.1185,5.1185,5.1184,0,5.1012,5.106,5.1112,5.1137,5.1161,5.1222,5.1198,5.1226,5.12,5.1189,5.1257,5.126,5.1292,5.131,5.1285,5.1391,5.1369,5.1326,5.1257,5.1375,5.1418,5.1436,5.1195,5.1193,5.1191,5.1189,0,0,5.121,5.1216,5.1236,5.1246,5.1256,5.1292,5.1349,5.1381,5.1404,5.1422,5.1468,5.1523,5.1483,5.1498,5.1473,5.1516,5.1627,5.1467,5.1467,5.1496,5.1742,5.1774,5.1795,5.1601,5.1605,5.1607,5.1741,0,5.1347,5.1446,5.1419,5.1518,5.156,5.1506,5.1556,5.1567,5.1559,5.1592,5.1582,5.1621,5.1566,5.1575,5.1615,5.1606,5.1676,5.1596,5.1642,5.1644,5.164,5.1818,5.1852,5.1978,5.1758,5.1761,5.1763,0,5.152,5.1545,5.1648,5.165,5.1667,5.1712,5.1738,5.1772,5.1782,5.1773,5.179,5.1757,5.1812,5.1744,5.1818,5.1764,5.1781,5.1779,5.1783,5.1785,5.171,5.1824,5.2017,5.2036,5.1789,5.1787,5.1785,0,5.1652,5.1712,5.1781,5.1791,5.1796,5.1828,5.1832,5.1839,5.1859,5.1881,5.1894,5.1922,5.1937,5.196,5.1934,5.1887,5.2012,5.1942,5.2004,5.2005,5.2032,5.203,5.223,5.2046,5.2045,5.2045,5.2045,0,5.1807,5.1872,5.184,5.1882,5.1953,5.192,5.1991,5.1987,5.1994,5.2034,5.1989,5.2027,5.1991,5.2026,5.2006,5.207,5.2077,5.207,5.2064,5.2074,5.2075,5.2084,5.2074,5.205,5.2049,5.2048,5.2047,0,5.1967,5.1948,5.2019,5.2018,5.2019,5.2071,5.2069,5.2107,5.2096,5.2146,5.2156,5.2138,5.2176,5.2153,5.2192,5.2178,5.2261,5.2243,5.2258,5.2252,5.2315,5.2309,5.2527,5.2553,5.2354,5.2355,5.2357,0,5.2066,5.2114,5.2118,5.2142,5.2148,5.2187,5.2208,5.2177,5.22,5.2216,5.2252,5.2286,5.2312,5.2375,5.2364,5.2393,5.2375,5.2449,5.2379,5.2387,5.2374,5.2371,5.2375,5.2463,5.2465,5.2467,5.2469,0,5.2244,5.2232,5.2264,5.2292,5.2318,5.2339,5.2356,5.2377,5.2347,5.2374,5.2413,5.2433,5.2473,5.2507,5.2531,5.2533,5.2496,5.2491,5.2507,5.2517,5.2522,5.2519,5.2295,5.2486,5.2484,5.2483,5.2482,5.2481,5.2375,5.2415,5.2424,5.246,5.247,5.2486,5.2522,5.2515,5.2547,5.2577,5.2557,5.2602,5.261,5.2639,5.2646,5.268,5.265,5.2673,5.2678,5.2684,5.2692,5.2518,5.2684,5.2684,5.2683,5.2683,5.2683,0,5.2549,5.2552,5.2586,5.2611,5.2639,5.2603,5.2619,5.2645,5.2685,5.2697,5.2723,5.2767,5.2799,5.2791,5.282,5.2849,5.2833,5.2858,5.2855,5.2855,5.2719,5.2701,5.2871,5.2871,5.287,5.287,5.287,5.287,5.2643,5.2708,5.2698,5.2767,5.2768,5.2813,5.2825,5.284,5.2848,5.29,5.2927,5.2922,5.2925,5.2953,5.2981,5.2978,5.299,5.3021,5.3012,5.2884,5.2865,5.2847,5.2831,5.3025,5.3025,5.3145,5.3147,5.3147]}]]